Back to catalog

COSMOS 1275 DEB

AlivePO
NORAD 12696·DEBRIS·🇷🇺 Russia

Launched Jun 4, 1981 from Plesetsk Cosmodrome

Loading…

Next Passes (next 24 hours)

TLE

FreshSource: Space-Track

Epoch: Sep 14, 2026, 15:28 UTC

1 12696U 81053AQ  26257.64489148  .00000308  00000-0  41025-3 0  9993
2 12696  83.0735 204.6590 0148092 337.0110 201.8544 13.53393081219762

Track COSMOS 1275 DEB in real time with AllMySat

Download on the App Store